Weather History for Greensboro, NC

Change the Weather History Date:

Thursday, January 17, 2013

  Actual Average Record
Temperature  
Mean Temperature 41 °F 39 °F  
Max Temperature 49 °F 48 °F 76 °F (1943)
Min Temperature 32 °F 29 °F -2 °F (1977)
Degree Days  
Heating Degree Days 24 26  
Month to date heating degree days 324 442  
Since 1 July heating degree days 1658 1856  
Cooling Degree Days 0 0  
Month to date cooling degree days 0 0  
Year to date cooling degree days 0 0  
Moisture  
Dew Point 41 °F    
Average Humidity 96    
Maximum Humidity 100    
Minimum Humidity 92    
Precipitation  
Precipitation 2.45 in 0.10 in 2.45 in (2013)
Month to date precipitation 4.41 1.71  
Year to date precipitation 4.41 1.71  
Snow  
Snow 3.00 in 0.10 in 3.00 in (2013)
Month to date snowfall 3.0 1.8  
Since 1 July snowfall 3.0 2.7  
Snow Depth 0.00 in    
Sea Level Pressure  
Sea Level Pressure 29.98 in    
Wind  
Wind Speed 11 mph (NNE)    
Max Wind Speed 28 mph    
Max Gust Speed 38 mph    
Visibility 3 miles    
Events Rain , Snow , Thunderstorm    
T = Trace of Precipitation, MM = Missing Value Source: NWS Daily Summary

Daily Weather History Graph

Daily Weather History Graph

Search for Another Location

Airport:

Trip Planner

Search our weather history database for the weather conditions in past years. The results will help you decide how hot, cold, wet, or windy it might be!

Date:

Astronomy

Jan. 17, 2013 Rise Set
Actual Time 7:29 AM EST 5:31 PM EST
Civil Twilight 7:01 AM EST 5:58 PM EST
Nautical Twilight 6:29 AM EST 6:30 PM EST
Astronomical Twilight 5:59 AM EST 7:01 PM EST
Moon 10:48 AM EST (1/17) No Moon Set
Length of Visible Light 10h 57m
Length of Day
10h 02m
Waxing Crescent, 37% of the Moon is Illuminated
Jan 17
Waxing Crescent
Jan 18
First Quarter
Jan 26
Full
Feb 3
Last Quarter
Feb 10
New

Hourly Weather History & Observations

Time (EST) Temp. Windchill Dew Point Humidity Pressure Visibility Wind Dir Wind Speed Gust Speed Precip Events Conditions
12:54 AM 48.9 °F - 48.0 °F 97% 29.98 in 5.0 mi WSW 3.5 mph - 0.03 in Rain Light Rain
1:19 AM 48.2 °F - 48.2 °F 100% 29.97 in 2.5 mi South 4.6 mph - 0.03 in Rain Rain
1:29 AM 48.2 °F - 48.2 °F 100% 29.96 in 4.0 mi South 4.6 mph - 0.03 in Rain Light Rain
1:54 AM 48.9 °F - 48.0 °F 97% 29.96 in 4.0 mi Calm Calm - 0.04 in Rain Light Rain
2:54 AM 48.9 °F - 48.0 °F 97% 29.96 in 3.0 mi North 3.5 mph - 0.02 in Rain Rain
3:01 AM 48.2 °F - 48.2 °F 100% 29.97 in 1.8 mi North 3.5 mph - 0.02 in Rain Rain
3:08 AM 48.2 °F - 48.2 °F 100% 29.97 in 2.0 mi North 3.5 mph - 0.03 in Rain Light Rain
3:22 AM 48.2 °F - 48.2 °F 100% 29.97 in 3.0 mi NNE 4.6 mph - 0.07 in Rain Rain
3:37 AM 48.2 °F - 48.2 °F 100% 29.97 in 3.0 mi NE 4.6 mph - 0.09 in Rain Rain
3:44 AM 48.2 °F - 48.2 °F 100% 29.97 in 2.5 mi NE 4.6 mph - 0.09 in Rain Light Rain
3:54 AM 48.9 °F - 48.0 °F 97% 29.97 in 2.5 mi NNE 5.8 mph - 0.12 in Rain Rain
4:15 AM 48.2 °F - 48.2 °F 100% 29.97 in 4.0 mi NNE 6.9 mph - 0.04 in Rain Light Rain
4:32 AM 48.2 °F - 48.2 °F 100% 29.96 in 2.0 mi NE 9.2 mph - 0.09 in Rain Heavy Rain
4:42 AM 48.2 °F - 48.2 °F 100% 29.97 in 4.0 mi ENE 9.2 mph - 0.10 in Rain Light Rain
4:54 AM 48.9 °F - 46.9 °F 93% 29.96 in 5.0 mi NE 9.2 mph - 0.10 in Rain Light Rain
5:54 AM 48.0 °F - 46.9 °F 96% 29.97 in 4.0 mi ENE 8.1 mph - 0.03 in Rain Light Rain
6:08 AM 48.2 °F - 46.4 °F 93% 29.96 in 4.0 mi NE 8.1 mph - 0.01 in Rain Light Rain
6:40 AM 48.2 °F - 46.4 °F 93% 29.97 in 10.0 mi NE 10.4 mph - 0.02 in   Overcast
6:54 AM 48.0 °F - 46.0 °F 93% 29.98 in 10.0 mi NE 8.1 mph - 0.02 in Rain Light Rain
7:54 AM 48.0 °F - 46.0 °F 93% 30.00 in 4.0 mi NE 10.4 mph - 0.04 in Rain Light Rain
8:54 AM 46.9 °F - 45.0 °F 93% 30.02 in 3.0 mi NE 10.4 mph - 0.03 in Rain Light Rain
9:12 AM 46.4 °F 41.5 °F 44.6 °F 93% 30.04 in 1.5 mi NE 10.4 mph 17.3 mph 0.01 in Rain Light Rain
9:47 AM 44.6 °F 37.8 °F 42.8 °F 93% 30.03 in 2.5 mi ENE 15.0 mph - 0.06 in Rain Rain
9:54 AM 44.1 °F 37.1 °F 42.1 °F 93% 30.03 in 2.5 mi NE 15.0 mph 25.3 mph 0.06 in Rain Light Rain
10:54 AM 43.0 °F 36.0 °F 42.1 °F 97% 30.02 in 2.5 mi NNE 13.8 mph 17.3 mph 0.07 in Rain Rain
11:41 AM 39.2 °F 32.5 °F 39.2 °F 100% 30.01 in 1.5 mi NNE 10.4 mph 21.9 mph 0.06 in Rain Rain
11:54 AM 39.9 °F 32.1 °F 37.9 °F 93% 30.01 in 1.2 mi North 13.8 mph 20.7 mph 0.14 in Rain Heavy Rain
12:00 PM 39.2 °F 31.6 °F 37.4 °F 93% 30.00 in 1.5 mi NNE 12.7 mph 20.7 mph 0.02 in Rain Heavy Rain
12:46 PM 39.2 °F 33.0 °F 39.2 °F 100% 29.97 in 2.5 mi NNE 9.2 mph - 0.11 in Rain Light Rain
12:54 PM 39.9 °F 32.9 °F 39.0 °F 97% 29.97 in 3.0 mi North 11.5 mph 18.4 mph 0.11 in Rain Light Rain
1:02 PM 39.2 °F 30.8 °F 39.2 °F 100% 29.94 in 1.8 mi NNE 15.0 mph 20.7 mph 0.01 in Rain Rain
1:54 PM 39.9 °F 31.1 °F 39.0 °F 97% 29.90 in 1.5 mi NE 17.3 mph 26.5 mph 0.09 in Rain Light Rain
2:15 PM 41.0 °F 33.5 °F 39.2 °F 93% 29.90 in 3.0 mi NNE 13.8 mph 23.0 mph 0.00 in Rain Light Rain
2:54 PM 41.0 °F 34.3 °F 39.0 °F 93% 29.91 in 10.0 mi NNE 11.5 mph 23.0 mph 0.00 in Rain Light Rain
3:18 PM 41.0 °F 32.5 °F 39.2 °F 93% 29.90 in 1.5 mi NE 17.3 mph 28.8 mph 0.01 in Rain Light Rain
3:25 PM 41.0 °F 32.2 °F 39.2 °F 93% 29.90 in 1.2 mi NE 18.4 mph 27.6 mph 0.02 in Rain Light Rain
3:54 PM 41.0 °F 33.5 °F 39.0 °F 93% 29.91 in 2.0 mi NNE 13.8 mph 21.9 mph 0.04 in Rain Light Rain
4:14 PM 41.0 °F 34.3 °F 39.2 °F 93% 29.93 in 1.2 mi NNE 11.5 mph 19.6 mph 0.05 in Rain Heavy Rain
4:31 PM 39.2 °F 31.2 °F 39.2 °F 100% 29.93 in 1.5 mi NNE 13.8 mph 23.0 mph 0.13 in Rain Rain
4:54 PM 39.0 °F 30.3 °F 37.9 °F 96% 29.93 in 1.5 mi NNE 16.1 mph 31.1 mph 0.23 in Rain Heavy Rain
5:09 PM 39.2 °F 30.2 °F 37.4 °F 93% 29.89 in 2.5 mi NNE 17.3 mph 32.2 mph 0.07 in Rain Heavy Rain
5:42 PM 37.4 °F 27.2 °F 35.6 °F 93% 29.91 in 3.0 mi NNE 19.6 mph 29.9 mph 0.19 in Rain Rain
5:54 PM 37.9 °F 27.3 °F 36.0 °F 93% 29.94 in 2.5 mi NNE 21.9 mph 35.7 mph 0.24 in Rain Heavy Rain
6:54 PM 35.1 °F 24.8 °F 33.1 °F 92% 29.98 in 1.8 mi NNE 17.3 mph 25.3 mph 0.31 in Rain , Snow Rain
7:05 PM 33.8 °F 23.2 °F 32.0 °F 93% 29.97 in 1.0 mi NNE 17.3 mph 24.2 mph 0.03 in Rain , Snow Rain
7:20 PM 33.8 °F 22.5 °F 32.0 °F 93% 29.97 in 1.0 mi NNE 19.6 mph 25.3 mph 0.08 in Rain , Snow , Thunderstorm Thunderstorms and Rain
7:34 PM 33.8 °F 23.9 °F 32.0 °F 93% 29.97 in 2.5 mi NNE 15.0 mph 24.2 mph 0.15 in Snow , Thunderstorm Light Thunderstorms and Snow
7:46 PM 33.8 °F 24.3 °F 32.0 °F 93% 29.99 in 1.8 mi NNE 13.8 mph 25.3 mph 0.17 in Snow Light Snow
7:54 PM 33.1 °F 24.4 °F 32.0 °F 96% 30.01 in 1.8 mi NNE 11.5 mph 21.9 mph 0.19 in Snow Light Snow
8:04 PM 33.8 °F 25.3 °F 32.0 °F 93% 29.99 in 1.0 mi NNE 11.5 mph 19.6 mph 0.03 in Snow Light Snow
8:14 PM 33.8 °F 23.9 °F 32.0 °F 93% 29.99 in 0.8 mi NNE 15.0 mph 20.7 mph 0.05 in Snow , Thunderstorm Light Thunderstorms and Snow
8:54 PM 33.1 °F 24.4 °F 32.0 °F 96% 30.02 in 0.8 mi NNE 11.5 mph 19.6 mph 0.18 in Snow Light Snow
9:56 PM 33.8 °F 26.4 °F 32.0 °F 93% 30.03 in 1.0 mi NNE 9.2 mph - 0.00 in Snow , Thunderstorm Light Thunderstorms and Snow
10:31 PM 33.8 °F - 32.0 °F 93% 30.10 in 1.0 mi Calm Calm - 0.06 in Snow Light Snow
10:54 PM 32.0 °F 26.4 °F 32.0 °F 100% 30.14 in 1.0 mi West 5.8 mph - 0.11 in Snow Light Snow
11:23 PM 33.8 °F 29.6 °F 32.0 °F 93% 30.14 in 4.0 mi NNW 4.6 mph - 0.02 in Snow Light Snow
11:42 PM 33.8 °F 27.7 °F 32.0 °F 93% 30.15 in 7.0 mi NNW 6.9 mph - 0.02 in   Overcast
11:54 PM 33.1 °F 27.7 °F 32.0 °F 96% 30.17 in 7.0 mi NW 5.8 mph - 0.02 in   Overcast